Regional Weather Roundup
Issued by NWS Cleveland, OH

Home | Current Version | Previous Version | Text Only | Print | Product List | Glossary On
Versions: 1 2 3 4 5 6 7 8 9 10 11 12 13 14 15 16 17 18 19 20 21 22 23 24 25 26 27 28 29 30 31 32 33 34 35 36 37 38 39 40 41 42 43 44 45 46 47 48 49 50
000
ASUS41 KCLE 312310
RWRCLE
OHIO REGIONAL WEATHER ROUNDUP
NATIONAL WEATHER SERVICE WILMINGTON, OH
700 PM EDT FRI JUL 31 2015

NOTE: "FAIR" INDICATES FEW OR NO CLOUDS BELOW 12,000 FEET WITH NO
SIGNIFICANT WEATHER AND/OR OBSTRUCTIONS TO VISIBILITY.

OHZ001>008-015>018-024>027-034-035-043-044-010000-
   NORTHWEST OHIO

CITY           SKY/WX    TMP DP  RH WIND       PRES   REMARKS
DEFIANCE       SUNNY     84  50  30 NW14G21   29.90S
FINDLAY        MOSUNNY   82  63  52 SW15      29.89F
TOLEDO EXPRESS SUNNY     83  52  34 W12       29.87S
TOLEDO EXEC    SUNNY     85  52  32 W20       29.87S
LIMA           MOSUNNY   79  63  57 SW12      29.92F
$$

OHZ009>014-019>023-028>033-038-089-010000-
   NORTHEAST OHIO

CITY           SKY/WX    TMP DP  RH WIND       PRES   REMARKS
CLE-HOPKINS    PTSUNNY   82  57  42 SW14G20   29.87F
CLE-LAKEFRONT  MOSUNNY   85  60  42 SW16      29.83F
CUY CO. ARPT   PTSUNNY   84  59  42 W14       29.86F
LORAIN-ELYRIA  MOSUNNY   82  59  45 W12       29.86F
ASHTABULA      PTSUNNY   83  54  36 W13G22    29.86F
AKRON-CANTON   MOSUNNY   83  55  38 W10       29.89F
WOOSTER        SUNNY     81  58  45 W9        29.90F
MANSFIELD      MOSUNNY   81  58  45 SW10      29.91F
YOUNGSTOWN     MOSUNNY   82  54  37 SW13G21   29.88F
$$

OHZ042-051>053-060>062-070>072-077>081-010000-
  SOUTHWEST OHIO

CITY           SKY/WX    TMP DP  RH WIND       PRES   REMARKS
CINC-COVINGTON MOSUNNY   85  61  44 W7        29.97F
CINC-LUNKEN    MOSUNNY   84  60  44 W10       29.95F
HAMILTON       SUNNY     86  61  42 W8        29.96F
DAYTON         PTSUNNY   80  60  50 SW10      29.95F
WRIGHT-PAT AFB PTSUNNY   82  58  44 SW13      29.93F
DAYTON GENERAL MOSUNNY   84  56  38 SW10      29.95F
WILMINGTON     SUNNY     83  57  41 W13       29.96F
$$

OHZ036-037-039>041-045>050-054>059-063>069-073>076-082>088-010000-
  CENTRAL AND SOUTHEAST OHIO

CITY           SKY/WX    TMP DP  RH WIND       PRES   REMARKS
COLUMBUS       PTSUNNY   82  55  39 W14       29.92F
OSU AIRPORT    CLOUDY    81  59  47 W8        29.93F
BOLTON FIELD   CLOUDY    81  63  54 SW6       29.94F
RICKENBACK AFB PTSUNNY   81  61  50 W7        29.93S
NEWARK         SUNNY     84  60  44 W10       29.91F
MARION         CLOUDY    81  58  45 W12       29.92F
LANCASTER      SUNNY     82  60  47 W7        29.94S
ZANESVILLE     SUNNY     84  54  35 W7        29.92F
NEW PHILLY     SUNNY     82  59  45 W7        29.91F
$$


USA.gov is the U.S. government's official web portal to all federal, state and local government web resources and services.